Tomahawk, WI

11:20 PM CST on December 17, 2017 (GMT -0600)
Tomahawk

Weather History for KTKV - May, 2013

Change the Weather History Date:

Tuesday, May 7, 2013

  Actual Average (KRHI) Record (KRHI)
Temperature  
Mean Temperature 54 °F -  
Max Temperature 75 °F 62 °F 87 °F (1926)
Min Temperature 33 °F 38 °F 24 °F (1974)
Degree Days  
Heating Degree Days 11    
Growing Degree Days 4 (Base 50)    
Moisture  
Dew Point 37 °F    
Average Humidity 54    
Maximum Humidity 100    
Minimum Humidity 20    
Precipitation  
Precipitation 0.00 in - - ()
Sea Level Pressure  
Sea Level Pressure 30.04 in    
Wind  
Wind Speed 1 mph (SE)    
Max Wind Speed 7 mph    
Max Gust Speed -    
Visibility 10 miles    
Events      
Averages and records for this station are not official NWS values.
T = Trace of Precipitation, MM = Missing Value Source: NWS Daily Summary

Daily Weather History Graph

Daily Weather History Graph

Search for Another Location

Airport or City:

Trip Planner

Search our weather history database for the weather conditions in past years. The results will help you decide how hot, cold, wet, or windy it might be!

Date:

Astronomy

May. 07, 2013 Rise Set
Actual Time 5:38 AM CDT 8:13 PM CDT
Civil Twilight 5:04 AM CDT 8:47 PM CDT
Nautical Twilight 4:22 AM CDT 9:29 PM CDT
Astronomical Twilight 3:34 AM CDT 10:18 PM CDT
Moon 4:19 AM CDT (5/7) 6:08 PM CDT (5/7)
Length of Visible Light 15h 42m
Length of Day
14h 35m
Waning Crescent, 5% of the Moon is Illuminated
May 7
Waning Crescent
May 9
New
May 17
First Quarter
May 24
Full
May 31
Last Quarter

Hourly Weather History & Observations

Time (CDT) Temp. Windchill Dew Point Humidity Pressure Visibility Wind Dir Wind Speed Gust Speed Precip Events Conditions
12:15 AM 51.8 °F - 39.2 °F 62% 30.06 in 10.0 mi Calm Calm - N/A   Clear
12:35 AM 42.8 °F - 37.4 °F 81% 30.06 in 10.0 mi Calm Calm - N/A   Clear
12:55 AM 44.6 °F - 39.2 °F 81% 30.06 in 10.0 mi Calm Calm - N/A   Clear
1:15 AM 44.6 °F - 39.2 °F 81% 30.06 in 10.0 mi Calm Calm - N/A   Clear
1:35 AM 46.4 °F 45.2 °F 39.2 °F 76% 30.06 in 10.0 mi East 3.5 mph - N/A   Clear
1:55 AM 50.0 °F - 41.0 °F 71% 30.05 in 10.0 mi ENE 3.5 mph - N/A   Clear
2:15 AM 50.0 °F - 41.0 °F 71% 30.05 in 10.0 mi Calm Calm - N/A   Clear
2:35 AM 41.0 °F - 37.4 °F 87% 30.05 in 10.0 mi Calm Calm - N/A   Clear
2:55 AM 39.2 °F - 35.6 °F 87% 30.06 in 10.0 mi Calm Calm - N/A   Clear
3:15 AM 39.2 °F - 35.6 °F 87% 30.06 in 10.0 mi Calm Calm - N/A   Clear
3:35 AM 39.2 °F - 35.6 °F 87% 30.06 in 10.0 mi Calm Calm - N/A   Clear
3:55 AM 37.4 °F - 35.6 °F 93% 30.06 in 10.0 mi Calm Calm - N/A   Clear
4:15 AM 37.4 °F - 35.6 °F 93% 30.06 in 10.0 mi Calm Calm - N/A   Clear
4:35 AM 35.6 °F - 33.8 °F 93% 30.06 in 10.0 mi Calm Calm - N/A   Clear
5:15 AM 35.6 °F - 33.8 °F 93% 30.07 in 10.0 mi Calm Calm - N/A   Clear
5:35 AM 35.6 °F - 33.8 °F 93% 30.07 in 10.0 mi Calm Calm - N/A   Clear
5:55 AM 33.8 °F - 32.0 °F 93% 30.07 in 7.0 mi Calm Calm - N/A   Clear
6:15 AM 35.6 °F - 35.6 °F 100% 30.07 in 10.0 mi Calm Calm - N/A   Clear
6:35 AM 37.4 °F - 35.6 °F 93% 30.08 in 10.0 mi Calm Calm - N/A   Clear
6:55 AM 41.0 °F - 41.0 °F 100% 30.08 in 10.0 mi Calm Calm - N/A   Clear
7:15 AM 46.4 °F - 42.8 °F 87% 30.09 in 10.0 mi Calm Calm - N/A   Clear
7:35 AM 48.2 °F - 41.0 °F 76% 30.09 in 10.0 mi Calm Calm - N/A   Clear
7:55 AM 51.8 °F - 41.0 °F 67% 30.09 in 10.0 mi Calm Calm - N/A   Clear
8:15 AM 53.6 °F - 41.0 °F 62% 30.09 in 10.0 mi Calm Calm - N/A   Clear
8:35 AM 59.0 °F - 41.0 °F 51% 30.10 in 10.0 mi Calm Calm - N/A   Clear
8:55 AM 60.8 °F - 41.0 °F 48% 30.10 in 10.0 mi Calm Calm - N/A   Clear
9:15 AM 62.6 °F - 41.0 °F 45% 30.10 in 10.0 mi SE 3.5 mph - N/A   Clear
9:35 AM 64.4 °F - 39.2 °F 40% 30.09 in 10.0 mi Calm Calm - N/A   Clear
9:55 AM 66.2 °F - 39.2 °F 37% 30.08 in 10.0 mi Calm Calm - N/A   Clear
10:15 AM 68.0 °F - 37.4 °F 33% 30.08 in 10.0 mi Calm Calm - N/A   Clear
10:35 AM 69.8 °F - 35.6 °F 28% 30.08 in 10.0 mi Calm Calm - N/A   Clear
10:55 AM 69.8 °F - 35.6 °F 28% 30.07 in 10.0 mi ENE 4.6 mph - N/A   Clear
11:15 AM 71.6 °F - 35.6 °F 27% 30.07 in 10.0 mi Calm Calm - N/A   Clear
11:35 AM 71.6 °F - 35.6 °F 27% 30.07 in 10.0 mi Calm Calm - N/A   Clear
11:55 AM 71.6 °F - 35.6 °F 27% 30.07 in 10.0 mi ESE 4.6 mph - N/A   Scattered Clouds
12:15 PM 73.4 °F - 33.8 °F 23% 30.06 in 10.0 mi Calm Calm - N/A   Scattered Clouds
12:35 PM 71.6 °F - 32.0 °F 23% 30.05 in 10.0 mi SE 3.5 mph - N/A   Scattered Clouds
12:55 PM 71.6 °F - 32.0 °F 23% 30.05 in 10.0 mi Calm Calm - N/A   Mostly Cloudy
1:15 PM 69.8 °F - 32.0 °F 25% 30.04 in 10.0 mi Calm Calm - N/A   Overcast
1:35 PM 73.4 °F - 32.0 °F 22% 30.04 in 10.0 mi Calm Calm - N/A   Scattered Clouds
1:55 PM 73.4 °F - 32.0 °F 22% 30.03 in 10.0 mi Calm Calm - N/A   Mostly Cloudy
2:15 PM 71.6 °F - 32.0 °F 23% 30.03 in 10.0 mi ESE 3.5 mph - N/A   Mostly Cloudy
2:35 PM 71.6 °F - 32.0 °F 23% 30.02 in 10.0 mi Calm Calm - N/A   Overcast
2:55 PM 73.4 °F - 32.0 °F 22% 30.02 in 10.0 mi South 6.9 mph - N/A   Overcast
3:15 PM 75.2 °F - 32.0 °F 21% 30.02 in 10.0 mi SE 4.6 mph - N/A   Overcast
3:35 PM 75.2 °F - 32.0 °F 21% 30.01 in 10.0 mi Calm Calm - N/A   Overcast
3:55 PM 73.4 °F - 32.0 °F 22% 30.01 in 10.0 mi Calm Calm - N/A   Overcast
4:15 PM 73.4 °F - 32.0 °F 22% 30.01 in 10.0 mi Calm Calm - N/A   Overcast
4:35 PM 73.4 °F - 30.2 °F 20% 30.00 in 10.0 mi Calm Calm - N/A   Mostly Cloudy
4:55 PM 73.4 °F - 30.2 °F 20% 30.00 in 10.0 mi West 5.8 mph - N/A   Scattered Clouds
5:15 PM 71.6 °F - 30.2 °F 22% 30.00 in 10.0 mi WSW 3.5 mph - N/A   Scattered Clouds
5:35 PM 71.6 °F - 32.0 °F 23% 30.00 in 10.0 mi Calm Calm - N/A   Mostly Cloudy
5:55 PM 69.8 °F - 35.6 °F 28% 30.00 in 10.0 mi Calm Calm - N/A   Mostly Cloudy
6:15 PM 69.8 °F - 32.0 °F 25% 30.00 in 10.0 mi Calm Calm - N/A   Mostly Cloudy
6:35 PM 68.0 °F - 35.6 °F 30% 30.00 in 10.0 mi Calm Calm - N/A   Mostly Cloudy
6:55 PM 62.6 °F - 41.0 °F 45% 30.00 in 10.0 mi Calm Calm - N/A   Mostly Cloudy
7:15 PM 62.6 °F - 35.6 °F 37% 30.00 in 10.0 mi Calm Calm - N/A   Scattered Clouds
7:35 PM 60.8 °F - 37.4 °F 42% 30.00 in 10.0 mi Calm Calm - N/A   Mostly Cloudy
7:55 PM 60.8 °F - 41.0 °F 48% 30.00 in 10.0 mi Calm Calm - N/A   Overcast
8:15 PM 57.2 °F - 41.0 °F 55% 30.00 in 10.0 mi Calm Calm - N/A   Overcast
8:35 PM 55.4 °F - 41.0 °F 58% 30.01 in 10.0 mi Calm Calm - N/A   Overcast
8:55 PM 55.4 °F - 42.8 °F 63% 30.01 in 10.0 mi Calm Calm - N/A   Overcast
9:15 PM 55.4 °F - 41.0 °F 58% 30.01 in 10.0 mi Calm Calm - N/A   Overcast
9:35 PM 55.4 °F - 42.8 °F 63% 30.02 in 10.0 mi Calm Calm - N/A   Overcast
9:55 PM 53.6 °F - 42.8 °F 67% 30.02 in 10.0 mi Calm Calm - N/A   Overcast
10:15 PM 53.6 °F - 42.8 °F 67% 30.02 in 10.0 mi South 4.6 mph - N/A   Overcast
10:35 PM 55.4 °F - 42.8 °F 63% 30.02 in 10.0 mi Calm Calm - N/A   Overcast
10:55 PM 53.6 °F - 42.8 °F 67% 30.02 in 10.0 mi Calm Calm - N/A   Overcast
11:15 PM 53.6 °F - 42.8 °F 67% 30.02 in 10.0 mi Calm Calm - N/A   Overcast
11:35 PM 50.0 °F - 41.0 °F 71% 30.02 in 10.0 mi Calm Calm - N/A   Overcast
11:55 PM 50.0 °F - 41.0 °F 71% 30.02 in 10.0 mi Calm Calm - N/A   Overcast